Location: Mexico
(19.4000°N, 99.1500°W)
Time: 00:47:36
(UTC-06:00)

ISS - Pass Details

Date: 24 July 2017
Orbit: 400 x 408 km, 51.6° (Epoch: 21 July)

Event Time Altitude Azimuth Distance (km) Brightness Sun altitude
Rises 05:36:51 0° 317° (NW) 2,307 -0.2 -8.1°
Reaches altitude 10° 05:38:56 10° 314° (NW) 1,448 -1.2 -7.7°
Maximum altitude 05:42:09 62° 233° (SW) 453 -3.9 -7.0°
Drops below altitude 10° 05:45:22 10° 151° (SSE) 1,449 -0.9 -6.3°
Sets 05:47:27 0° 148° (SSE) 2,308 0.1 -5.8°
